Weather History for KNYL - May, 2012

Change the Weather History Date:

Wednesday, May 2, 2012

  Actual Average Record
Temperature  
Mean Temperature 77 °F 78 °F  
Max Temperature 88 °F 91 °F 111 °F (1947)
Min Temperature 65 °F 64 °F 39 °F (1915)
Degree Days  
Heating Degree Days 0 0  
Month to date heating degree days 0 0  
Since 1 July heating degree days 697 686  
Cooling Degree Days 12 13  
Month to date cooling degree days 29 25  
Year to date cooling degree days 419 431  
Growing Degree Days 26 (Base 50)    
Moisture  
Dew Point 50 °F    
Average Humidity 45    
Maximum Humidity 68    
Minimum Humidity 22    
Precipitation  
Precipitation 0.00 in 0.01 in 0.12 in (1930)
Month to date precipitation 0.00 0.01  
Year to date precipitation 0.09 1.25  
Sea Level Pressure  
Sea Level Pressure 29.77 in    
Wind  
Wind Speed 8 mph (SSW)    
Max Wind Speed 16 mph    
Max Gust Speed 20 mph    
Visibility 10 miles    
Events      
T = Trace of Precipitation, MM = Missing Value Source: NWS Daily Summary

Daily Weather History Graph

Daily Weather History Graph

Search for Another Location

Airport or City:

Trip Planner

Search our weather history database for the weather conditions in past years. The results will help you decide how hot, cold, wet, or windy it might be!

Date:

Astronomy

May. 02, 2012 Rise Set
Actual Time 5:49 AM MST 7:21 PM MST
Civil Twilight 5:23 AM MST 7:47 PM MST
Nautical Twilight 4:52 AM MST 8:19 PM MST
Astronomical Twilight 4:19 AM MST 8:52 PM MST
Moon 3:49 PM MST (5/2) 3:09 AM MST (5/2)
Length of Visible Light 14h 23m
Length of Day
13h 31m
Waxing Gibbous, 84% of the Moon is Illuminated
May 2
Waxing Gibbous
May 5
Full
May 12
Last Quarter
May 20
New
May 28
First Quarter

Hourly Weather History & Observations

Time (MST) Temp. Dew Point Humidity Pressure Visibility Wind Dir Wind Speed Gust Speed Precip Events Conditions
12:55 AM 71.1 °F 44.1 °F 38% 29.73 in 10.0 mi SSW 3.5 mph - N/A   Clear
1:55 AM 70.0 °F 48.0 °F 46% 29.72 in 10.0 mi South 6.9 mph - N/A   Clear
2:55 AM 68.0 °F 53.1 °F 59% 29.72 in 10.0 mi South 5.8 mph - N/A   Clear
3:55 AM 66.9 °F 55.0 °F 66% 29.73 in 10.0 mi SSW 4.6 mph - N/A   Clear
4:55 AM 66.0 °F 55.0 °F 68% 29.73 in 10.0 mi SSW 6.9 mph - N/A   Clear
5:55 AM 64.9 °F 54.0 °F 68% 29.75 in 10.0 mi South 9.2 mph - N/A   Clear
6:55 AM 66.9 °F 54.0 °F 63% 29.78 in 10.0 mi South 9.2 mph - N/A   Mostly Cloudy
7:55 AM 69.1 °F 53.1 °F 57% 29.81 in 10.0 mi SSE 8.1 mph - N/A   Mostly Cloudy
8:55 AM 72.0 °F 53.1 °F 51% 29.82 in 10.0 mi South 6.9 mph - N/A   Mostly Cloudy
9:55 AM 73.9 °F 53.1 °F 48% 29.83 in 10.0 mi Variable 4.6 mph - N/A   Mostly Cloudy
10:55 AM 78.1 °F 51.1 °F 39% 29.83 in 10.0 mi SE 10.4 mph - N/A   Mostly Cloudy
11:55 AM 80.1 °F 50.0 °F 35% 29.82 in 10.0 mi South 6.9 mph - N/A   Mostly Cloudy
12:55 PM 84.0 °F 50.0 °F 31% 29.79 in 10.0 mi South 12.7 mph 16.1 mph N/A   Mostly Cloudy
1:55 PM 84.9 °F 48.0 °F 28% 29.78 in 10.0 mi SSW 10.4 mph 17.3 mph N/A   Mostly Cloudy
2:55 PM 87.1 °F 45.0 °F 23% 29.76 in 10.0 mi SSE 11.5 mph 17.3 mph N/A   Mostly Cloudy
3:55 PM 87.1 °F 45.0 °F 23% 29.75 in 10.0 mi West 5.8 mph - N/A   Mostly Cloudy
4:55 PM 86.0 °F 45.0 °F 24% 29.74 in 10.0 mi West 8.1 mph - N/A   Clear
5:55 PM 86.0 °F 45.0 °F 24% 29.74 in 10.0 mi WNW 4.6 mph - N/A   Clear
6:55 PM 84.9 °F 44.1 °F 24% 29.75 in 10.0 mi West 3.5 mph - N/A   Clear
7:55 PM 80.1 °F 50.0 °F 35% 29.75 in 10.0 mi SSE 10.4 mph - N/A   Clear
8:55 PM 77.0 °F 51.1 °F 40% 29.78 in 10.0 mi SSE 15.0 mph - N/A   Clear
9:55 PM 73.9 °F 51.1 °F 45% 29.81 in 10.0 mi SSE 9.2 mph - N/A   Clear
10:55 PM 72.0 °F 51.1 °F 48% 29.83 in 10.0 mi SSW 5.8 mph - N/A   Clear
11:55 PM 70.0 °F 51.1 °F 51% 29.83 in 10.0 mi SW 3.5 mph - N/A   Clear